TimeMDT,TemperatureF,Dew PointF,Humidity,Sea Level PressureIn,VisibilityMPH,Wind Direction,Wind SpeedMPH,Gust SpeedMPH,PrecipitationIn,Events,Conditions,WindDirDegrees,DateUTC
12:12 AM,33.8,26.6,75,30.56,10.0,East,5.8,-,N/A,,Clear,80,2013-05-11 06:12:00
12:32 AM,33.8,26.6,75,30.56,10.0,SSE,5.8,-,N/A,,Clear,150,2013-05-11 06:32:00
12:52 AM,33.8,26.6,75,30.56,10.0,South,5.8,-,N/A,,Scattered Clouds,170,2013-05-11 06:52:00
1:12 AM,33.8,26.6,75,30.57,10.0,South,5.8,-,N/A,,Mostly Cloudy,180,2013-05-11 07:12:00
1:32 AM,33.8,24.8,70,30.57,10.0,West,4.6,-,N/A,,Mostly Cloudy,270,2013-05-11 07:32:00
1:52 AM,33.8,26.6,75,30.57,10.0,Calm,Calm,-,N/A,,Overcast,0,2013-05-11 07:52:00
2:12 AM,33.8,24.8,70,30.57,10.0,WNW,4.6,-,N/A,,Scattered Clouds,290,2013-05-11 08:12:00
2:32 AM,33.8,24.8,70,30.57,10.0,NE,5.8,-,N/A,,Scattered Clouds,40,2013-05-11 08:32:00
2:52 AM,32.0,23.0,69,30.57,10.0,NW,4.6,-,N/A,,Scattered Clouds,310,2013-05-11 08:52:00
3:12 AM,32.0,21.2,64,30.57,10.0,NW,4.6,-,N/A,,Scattered Clouds,310,2013-05-11 09:12:00
3:32 AM,32.0,23.0,69,30.58,10.0,WNW,5.8,-,N/A,,Scattered Clouds,300,2013-05-11 09:32:00
3:52 AM,32.0,23.0,69,30.57,10.0,West,5.8,-,N/A,,Scattered Clouds,260,2013-05-11 09:52:00
4:12 AM,30.2,21.2,69,30.57,10.0,SW,4.6,-,N/A,,Scattered Clouds,220,2013-05-11 10:12:00
4:32 AM,32.0,23.0,69,30.57,10.0,South,8.1,-,N/A,,Clear,190,2013-05-11 10:32:00
4:52 AM,32.0,21.2,64,30.57,10.0,West,5.8,-,N/A,,Clear,260,2013-05-11 10:52:00
5:12 AM,30.2,21.2,69,30.56,10.0,South,8.1,-,N/A,,Clear,190,2013-05-11 11:12:00
5:32 AM,32.0,19.4,60,30.57,10.0,SSW,5.8,-,N/A,,Clear,200,2013-05-11 11:32:00
5:52 AM,32.0,19.4,60,30.57,10.0,South,8.1,-,N/A,,Clear,180,2013-05-11 11:52:00
6:12 AM,30.2,17.6,60,30.57,10.0,South,10.4,-,N/A,,Clear,180,2013-05-11 12:12:00
6:32 AM,32.0,19.4,60,30.57,10.0,West,6.9,-,N/A,,Clear,260,2013-05-11 12:32:00
6:52 AM,32.0,17.6,55,30.58,10.0,Calm,Calm,-,N/A,,Clear,0,2013-05-11 12:52:00
7:12 AM,32.0,19.4,60,30.59,10.0,SSW,10.4,-,N/A,,Clear,200,2013-05-11 13:12:00
7:32 AM,32.0,19.4,60,30.59,10.0,SSW,9.2,-,N/A,,Clear,200,2013-05-11 13:32:00
7:52 AM,32.0,19.4,60,30.59,10.0,SSW,6.9,-,N/A,,Clear,200,2013-05-11 13:52:00
8:12 AM,33.8,21.2,60,30.59,10.0,Calm,Calm,-,N/A,,Clear,0,2013-05-11 14:12:00
8:32 AM,33.8,21.2,60,30.59,10.0,South,9.2,-,N/A,,Clear,190,2013-05-11 14:32:00
8:52 AM,33.8,19.4,56,30.59,10.0,Calm,Calm,-,N/A,,Clear,0,2013-05-11 14:52:00
9:12 AM,33.8,19.4,56,30.59,10.0,West,5.8,-,N/A,,Clear,270,2013-05-11 15:12:00
9:32 AM,35.6,19.4,52,30.59,10.0,West,5.8,-,N/A,,Clear,270,2013-05-11 15:32:00
9:52 AM,37.4,19.4,48,30.59,10.0,West,8.1,-,N/A,,Clear,280,2013-05-11 15:52:00
10:12 AM,37.4,19.4,48,30.60,10.0,West,13.8,-,N/A,,Scattered Clouds,270,2013-05-11 16:12:00
10:32 AM,39.2,19.4,45,30.60,10.0,WNW,4.6,-,N/A,,Mostly Cloudy,290,2013-05-11 16:32:00
10:52 AM,41.0,19.4,42,30.59,10.0,WNW,6.9,19.6,N/A,,Scattered Clouds,290,2013-05-11 16:52:00
11:12 AM,41.0,19.4,42,30.60,10.0,WNW,4.6,-,N/A,,Scattered Clouds,300,2013-05-11 17:12:00
11:32 AM,41.0,17.6,39,30.60,10.0,WNW,6.9,16.1,N/A,,Mostly Cloudy,290,2013-05-11 17:32:00
11:52 AM,41.0,17.6,39,30.60,10.0,WNW,8.1,16.1,N/A,,Overcast,290,2013-05-11 17:52:00
12:12 PM,41.0,17.6,39,30.60,10.0,West,9.2,-,N/A,,Mostly Cloudy,270,2013-05-11 18:12:00
12:32 PM,41.0,14.0,33,30.60,10.0,West,11.5,26.5,N/A,,Mostly Cloudy,270,2013-05-11 18:32:00
12:52 PM,44.6,14.0,29,30.59,10.0,WNW,18.4,24.2,N/A,,Mostly Cloudy,290,2013-05-11 18:52:00
1:12 PM,41.0,17.6,39,30.59,10.0,West,25.3,32.2,N/A,,Overcast,280,2013-05-11 19:12:00
1:32 PM,42.8,17.6,36,30.59,10.0,West,17.3,23.0,N/A,,Mostly Cloudy,280,2013-05-11 19:32:00
1:52 PM,42.8,17.6,36,30.59,10.0,WSW,15.0,24.2,N/A,,Scattered Clouds,250,2013-05-11 19:52:00
2:12 PM,44.6,15.8,31,30.59,10.0,WNW,19.6,29.9,N/A,,Scattered Clouds,290,2013-05-11 20:12:00
2:32 PM,35.6,26.6,70,30.59,1.2,WSW,11.5,25.3,N/A,Snow,Light Snow,240,2013-05-11 20:32:00
2:52 PM,41.0,19.4,42,30.59,10.0,West,13.8,-,N/A,,Scattered Clouds,270,2013-05-11 20:52:00
3:12 PM,44.6,21.2,39,30.57,10.0,West,18.4,27.6,N/A,,Clear,260,2013-05-11 21:12:00
3:32 PM,42.8,21.2,42,30.56,10.0,West,13.8,29.9,N/A,,Mostly Cloudy,280,2013-05-11 21:32:00
3:52 PM,41.0,23.0,49,30.56,10.0,West,38.0,-,N/A,,Mostly Cloudy,260,2013-05-11 21:52:00
4:12 PM,35.6,26.6,70,30.56,1.2,West,25.3,34.5,N/A,Snow,Light Snow,270,2013-05-11 22:12:00
4:32 PM,41.0,21.2,45,30.57,10.0,WNW,13.8,20.7,N/A,,Scattered Clouds,290,2013-05-11 22:32:00
4:52 PM,37.4,23.0,56,30.57,10.0,WNW,27.6,36.8,N/A,,Mostly Cloudy,290,2013-05-11 22:52:00
5:12 PM,35.6,26.6,70,30.57,10.0,West,16.1,26.5,N/A,,Overcast,280,2013-05-11 23:12:00
5:32 PM,37.4,24.8,60,30.57,10.0,West,16.1,-,N/A,,Overcast,270,2013-05-11 23:32:00
5:52 PM,39.2,23.0,52,30.56,10.0,West,18.4,23.0,N/A,,Mostly Cloudy,260,2013-05-11 23:52:00
6:12 PM,39.2,21.2,49,30.56,10.0,West,24.2,29.9,N/A,,Mostly Cloudy,270,2013-05-12 00:12:00
6:32 PM,35.6,26.6,70,30.55,0.5,West,27.6,52.9,N/A,Snow,Light Snow,260,2013-05-12 00:32:00
6:52 PM,35.6,26.6,70,30.57,1.2,WNW,20.7,39.1,N/A,Snow,Light Snow,290,2013-05-12 00:52:00
7:12 PM,35.6,28.4,75,30.56,7.0,West,12.7,18.4,N/A,,Overcast,280,2013-05-12 01:12:00
7:32 PM,35.6,26.6,70,30.56,10.0,West,6.9,-,N/A,,Scattered Clouds,270,2013-05-12 01:32:00
7:52 PM,35.6,26.6,70,30.56,10.0,West,11.5,-,N/A,,Clear,280,2013-05-12 01:52:00
8:12 PM,37.4,26.6,65,30.57,10.0,West,27.6,34.5,N/A,,Mostly Cloudy,280,2013-05-12 02:12:00
8:32 PM,37.4,23.0,56,30.56,10.0,West,16.1,-,N/A,,Overcast,270,2013-05-12 02:32:00
8:52 PM,37.4,23.0,56,30.57,10.0,West,18.4,23.0,N/A,,Mostly Cloudy,270,2013-05-12 02:52:00
9:12 PM,37.4,23.0,56,30.58,10.0,West,20.7,-,N/A,,Mostly Cloudy,270,2013-05-12 03:12:00
9:32 PM,35.6,26.6,70,30.59,4.0,West,16.1,21.9,N/A,Snow,Light Snow,260,2013-05-12 03:32:00
9:52 PM,35.6,24.8,65,30.59,10.0,West,18.4,-,N/A,,Scattered Clouds,270,2013-05-12 03:52:00
10:12 PM,33.8,23.0,65,30.58,10.0,West,12.7,18.4,N/A,,Clear,260,2013-05-12 04:12:00
10:32 PM,33.8,23.0,65,30.58,10.0,West,18.4,23.0,N/A,,Clear,260,2013-05-12 04:32:00
10:52 PM,35.6,23.0,60,30.58,10.0,West,19.6,-,N/A,,Clear,270,2013-05-12 04:52:00
11:12 PM,37.4,24.8,60,30.58,10.0,West,17.3,-,N/A,,Scattered Clouds,260,2013-05-12 05:12:00
11:32 PM,37.4,24.8,60,30.57,10.0,West,17.3,-,N/A,,Overcast,270,2013-05-12 05:32:00
11:52 PM,35.6,23.0,60,30.57,10.0,West,16.1,-,N/A,,Mostly Cloudy,260,2013-05-12 05:52:00